Time[GMT],current_speed[cm/s](2m),current_direction[angular_degrees](2m),temperature[C](2m),current_u[cm/s](2m),current_v[cm/s](2m)
2022-10-17 17:00,23.76,349.5,12.52,-4.32,23.36
2022-10-17 18:00,23.46,4.6,12.55,1.90,23.39
2022-10-17 19:00,17.60,5.7,12.43,1.75,17.51
2022-10-17 20:00,9.39,304.9,12.43,-7.70,5.37
2022-10-17 21:00,9.09,287.3,12.52,-8.68,2.71
2022-10-17 22:00,13.49,254.6,12.59,-13.01,-3.58
2022-10-17 23:00,16.72,226.9,12.59,-12.20,-11.43
2022-10-18 00:00,22.29,237.1,12.55,-18.71,-12.12
2022-10-18 01:00,31.97,220.9,12.55,-20.92,-24.17
2022-10-18 02:00,36.37,215.3,12.52,-20.99,-29.70
2022-10-18 03:00,23.46,211.0,12.59,-12.10,-20.11
2022-10-18 04:00,20.24,225.4,12.62,-14.42,-14.20
2022-10-18 05:00,10.85,235.6,12.59,-8.96,-6.12
2022-10-18 06:00,2.64,200.1,12.62,-0.91,-2.48
2022-10-18 07:00,8.80,258.1,12.62,-8.61,-1.81
2022-10-18 08:00,16.42,301.0,12.55,-14.07,8.47
2022-10-18 09:00,11.44,288.4,12.49,-10.85,3.61
2022-10-18 10:00,16.72,270.5,12.49,-16.72,0.13
2022-10-18 11:00,13.49,250.8,12.49,-12.74,-4.44
2022-10-18 12:00,16.13,210.3,12.49,-8.15,-13.92
2022-10-18 13:00,22.58,209.6,12.52,-11.16,-19.63
2022-10-18 14:00,11.15,227.6,12.49,-8.22,-7.52
2022-10-18 15:00,19.65,223.0,12.55,-13.40,-14.37
2022-10-18 16:00,17.30,278.5,12.59,-17.11,2.57
2022-10-18 17:00,13.79,286.6,12.62,-13.21,3.94
2022-10-18 18:00,29.04,295.4,12.55,-26.23,12.46
2022-10-18 19:00,13.49,321.1,12.52,-8.48,10.50
2022-10-18 20:00,19.65,316.9,12.55,-13.44,14.34
2022-10-18 21:00,13.49,296.8,12.49,-12.04,6.09
2022-10-18 22:00,25.22,290.5,12.52,-23.63,8.83
2022-10-18 23:00,21.41,264.1,12.49,-21.30,-2.19
2022-10-19 00:00,30.80,267.3,12.55,-30.76,-1.46
2022-10-19 01:00,21.70,245.8,12.59,-19.80,-8.88
2022-10-19 02:00,19.06,250.8,12.62,-18.00,-6.28
2022-10-19 03:00,15.84,247.2,12.55,-14.61,-6.13
2022-10-19 04:00,7.92,262.7,12.52,-7.86,-1.00
2022-10-19 05:00,4.99,330.2,12.55,-2.48,4.33
2022-10-19 06:00,13.49,11.7,12.55,2.73,13.21
2022-10-19 07:00,20.82,350.6,12.55,-3.41,20.54
2022-10-19 08:00,21.41,5.0,12.59,1.86,21.33
2022-10-19 09:00,9.97,14.8,12.59,2.55,9.64
2022-10-19 10:00,1.47,64.8,12.59,1.33,0.63
2022-10-19 11:00,5.57,141.4,12.59,3.48,-4.36
2022-10-19 12:00,38.13,188.5,12.55,-5.66,-37.71
2022-10-19 13:00,44.87,185.4,12.68,-4.20,-44.68
2022-10-19 14:00,47.81,194.9,12.74,-12.26,-46.21
2022-10-19 15:00,44.29,196.6,12.68,-12.67,-42.44
2022-10-19 16:00,39.89,199.4,12.65,-13.27,-37.62
2022-10-19 17:00,36.08,195.2,12.77,-9.47,-34.81
2022-10-19 18:00,24.64,197.0,12.87,-7.19,-23.56
2022-10-19 19:00,16.42,193.8,12.84,-3.92,-15.95
2022-10-19 20:00,7.33,205.1,12.84,-3.11,-6.64
2022-10-19 21:00,8.51,192.8,12.81,-1.88,-8.30
2022-10-19 22:00,12.61,166.0,12.74,3.04,-12.24
2022-10-19 23:00,18.48,181.9,12.74,-0.60,-18.47
2022-10-20 00:00,24.93,204.4,12.68,-10.28,-22.71
2022-10-20 01:00,33.73,186.4,12.65,-3.77,-33.52
2022-10-20 02:00,28.74,185.7,12.65,-2.86,-28.60
2022-10-20 03:00,34.61,191.0,12.68,-6.60,-33.97
2022-10-20 04:00,33.14,191.3,12.71,-6.52,-32.50
2022-10-20 05:00,34.32,189.9,12.68,-5.92,-33.80
2022-10-20 06:00,20.53,176.9,12.68,1.10,-20.50
2022-10-20 07:00,10.85,203.6,12.68,-4.35,-9.94
2022-10-20 08:00,16.42,119.6,12.68,14.28,-8.12
2022-10-20 09:00,9.09,157.2,12.71,3.52,-8.38
2022-10-20 10:00,13.20,151.3,12.71,6.35,-11.57
2022-10-20 11:00,17.89,195.2,12.71,-4.69,-17.26
2022-10-20 12:00,18.48,199.4,12.68,-6.15,-17.43
2022-10-20 13:00,28.74,183.6,12.68,-1.81,-28.69
2022-10-20 14:00,31.09,191.0,12.71,-5.93,-30.52
2022-10-20 15:00,27.28,174.5,12.74,2.63,-27.15
2022-10-20 16:00,29.33,180.4,12.74,-0.23,-29.33
2022-10-20 17:00,22.58,175.2,12.77,1.90,-22.50
2022-10-20 18:00,17.30,153.0,12.81,7.85,-15.42
2022-10-20 19:00,21.70,91.8,12.81,21.69,-0.70
2022-10-20 20:00,20.24,77.8,12.81,19.78,4.28
2022-10-20 21:00,15.54,62.0,12.81,13.72,7.31
2022-10-20 22:00,19.36,80.2,12.74,19.08,3.28
2022-10-20 23:00,14.96,124.5,12.74,12.32,-8.48
2022-10-21 00:00,14.66,133.3,12.74,10.67,-10.06
2022-10-21 01:00,21.70,149.9,12.71,10.90,-18.77
2022-10-21 02:00,24.64,168.1,12.71,5.06,-24.11
2022-10-21 03:00,28.74,173.4,12.71,3.30,-28.55
2022-10-21 04:00,31.09,179.7,12.68,0.14,-31.09
2022-10-21 05:00,21.70,172.7,12.68,2.75,-21.53
2022-10-21 06:00,25.22,155.1,12.65,10.61,-22.88
2022-10-21 07:00,19.36,124.2,12.65,16.01,-10.88
2022-10-21 08:00,9.39,120.0,12.65,8.13,-4.69
2022-10-21 09:00,7.63,134.7,12.62,5.42,-5.37
2022-10-21 10:00,12.61,88.3,12.62,12.61,0.37
2022-10-21 11:00,3.52,55.6,12.62,2.90,1.99
2022-10-21 12:00,3.23,177.6,12.62,0.13,-3.22
2022-10-21 13:00,14.08,211.7,12.62,-7.41,-11.97
2022-10-21 14:00,19.94,209.6,12.65,-9.86,-17.34
2022-10-21 15:00,25.81,202.2,12.68,-9.77,-23.89
2022-10-21 16:00,21.12,218.1,12.74,-13.02,-16.63
2022-10-21 17:00,17.89,203.6,12.81,-7.18,-16.39
2022-10-21 18:00,9.68,187.1,12.81,-1.20,-9.60
2022-10-21 19:00,6.75,130.9,12.74,5.10,-4.41
2022-10-21 20:00,20.24,91.5,12.81,20.23,-0.53
2022-10-21 21:00,9.68,115.4,12.87,8.74,-4.15
2022-10-21 22:00,4.40,69.3,12.84,4.12,1.55
2022-10-21 23:00,10.56,72.2,12.77,10.05,3.24
2022-10-22 00:00,11.73,123.5,12.74,9.78,-6.47
2022-10-22 01:00,17.30,168.8,12.77,3.35,-16.98
2022-10-22 02:00,18.18,168.8,12.74,3.52,-17.84
2022-10-22 03:00,35.49,190.3,12.74,-6.34,-34.92
2022-10-22 04:00,39.30,194.9,12.74,-10.08,-37.99
2022-10-22 05:00,28.45,183.6,12.71,-1.79,-28.39
2022-10-22 06:00,28.45,201.9,12.71,-10.61,-26.40
2022-10-22 07:00,27.57,185.4,12.74,-2.58,-27.45
2022-10-22 08:00,2.05,103.4,12.71,2.00,-0.48
2022-10-22 09:00,6.45,37.3,12.71,3.91,5.13
2022-10-22 10:00,11.15,15.9,12.71,3.05,10.72
2022-10-22 11:00,17.01,11.0,12.65,3.24,16.70
2022-10-22 12:00,15.25,54.2,12.68,12.37,8.92
2022-10-22 13:00,9.09,104.5,12.68,8.80,-2.28
2022-10-22 14:00,9.09,155.8,12.71,3.72,-8.30
2022-10-22 15:00,21.41,178.3,12.77,0.62,-21.40
2022-10-22 16:00,23.76,198.0,12.81,-7.35,-22.59
2022-10-22 17:00,30.50,181.9,12.87,-0.99,-30.49
2022-10-22 18:00,29.92,174.1,12.90,3.07,-29.76
2022-10-22 19:00,31.68,173.1,12.90,3.83,-31.44
2022-10-22 20:00,17.01,172.0,12.87,2.37,-16.85
2022-10-22 21:00,7.04,123.8,12.90,5.85,-3.92
2022-10-22 22:00,12.32,115.8,12.87,11.10,-5.35
2022-10-22 23:00,4.99,103.1,12.87,4.86,-1.13
2022-10-23 00:00,2.93,108.4,12.87,2.78,-0.92
2022-10-23 01:00,5.28,226.5,12.87,-3.83,-3.63
2022-10-23 02:00,10.56,211.0,12.84,-5.44,-9.05
2022-10-23 03:00,20.53,190.3,12.84,-3.67,-20.20
2022-10-23 04:00,33.44,191.0,12.81,-6.38,-32.82
2022-10-23 05:00,41.65,184.3,12.81,-3.13,-41.53
2022-10-23 06:00,38.42,188.5,12.74,-5.70,-38.00
2022-10-23 07:00,36.66,188.5,12.74,-5.44,-36.26
2022-10-23 08:00,29.04,195.9,12.81,-7.96,-27.92
2022-10-23 09:00,11.73,221.6,12.81,-7.79,-8.78
2022-10-23 10:00,10.85,325.7,12.77,-6.12,8.96
2022-10-23 11:00,8.80,316.9,12.74,-6.02,6.42
2022-10-23 12:00,25.52,3.6,12.77,1.60,25.47
2022-10-23 13:00,7.63,297.2,12.77,-6.78,3.48
2022-10-23 14:00,7.33,244.8,12.81,-6.63,-3.12
2022-10-23 15:00,14.96,210.3,12.84,-7.55,-12.91
2022-10-23 16:00,31.09,197.0,12.81,-9.07,-29.74
2022-10-23 17:00,35.78,189.6,12.77,-5.96,-35.28
2022-10-23 18:00,35.49,180.4,12.90,-0.28,-35.49
2022-10-23 19:00,38.13,185.0,12.84,-3.33,-37.98
2022-10-23 20:00,28.16,167.1,13.18,6.29,-27.44
2022-10-23 21:00,21.12,170.6,13.00,3.45,-20.83
2022-10-23 22:00,10.56,325.7,12.93,-5.96,8.72
2022-10-23 23:00,16.42,325.3,12.96,-9.35,13.50
2022-10-24 00:00,7.04,339.4,13.12,-2.48,6.59
2022-10-24 01:00,7.63,271.2,13.09,-7.62,0.15
2022-10-24 02:00,20.82,223.7,12.96,-14.38,-15.06
2022-10-24 03:00,24.34,208.2,12.87,-11.51,-21.45
2022-10-24 04:00,41.94,198.0,12.84,-12.98,-39.88
2022-10-24 05:00,37.25,201.5,12.77,-13.68,-34.65
2022-10-24 06:00,38.42,204.0,12.77,-15.63,-35.10
2022-10-24 07:00,39.30,215.3,12.74,-22.68,-32.09
2022-10-24 08:00,34.90,223.0,12.77,-23.80,-25.53
2022-10-24 09:00,26.98,245.8,12.68,-24.62,-11.04
2022-10-24 10:00,17.60,296.1,12.62,-15.80,7.75
2022-10-24 11:00,20.82,344.6,12.62,-5.53,20.08
2022-10-24 12:00,14.96,339.4,12.62,-5.27,14.00
2022-10-24 13:00,11.44,323.9,12.59,-6.74,9.24
2022-10-24 14:00,9.97,282.4,12.62,-9.74,2.14
2022-10-24 15:00,13.20,264.5,12.62,-13.14,-1.27
2022-10-24 16:00,19.65,220.9,12.62,-12.86,-14.86
2022-10-24 17:00,29.62,202.2,12.68,-11.21,-27.42
2022-10-24 18:00,44.87,198.0,12.65,-13.89,-42.67
2022-10-24 19:00,44.58,218.1,12.62,-27.49,-35.10
2022-10-24 20:00,33.14,207.5,12.62,-15.31,-29.39
2022-10-24 21:00,17.01,245.1,12.65,-15.43,-7.15
2022-10-24 22:00,17.60,351.6,12.65,-2.56,17.41
2022-10-24 23:00,22.58,341.8,12.65,-7.04,21.46
2022-10-25 00:00,24.64,3.6,12.65,1.54,24.59
2022-10-25 01:00,8.80,10.6,12.65,1.62,8.65
2022-10-25 02:00,6.16,250.1,12.65,-5.79,-2.10
2022-10-25 03:00,12.61,254.6,12.65,-12.16,-3.34
2022-10-25 04:00,25.22,200.8,12.65,-8.97,-23.57
2022-10-25 05:00,39.89,211.7,12.65,-20.98,-33.92
2022-10-25 06:00,41.06,235.3,12.71,-33.76,-23.38
2022-10-25 07:00,35.20,231.8,12.71,-27.65,-21.78
2022-10-25 08:00,26.40,238.8,12.71,-22.58,-13.67
2022-10-25 09:00,13.79,248.7,12.71,-12.84,-5.02
2022-10-25 10:00,10.27,268.3,12.65,-10.26,-0.30
2022-10-25 11:00,10.85,349.2,12.68,-2.04,10.66
2022-10-25 12:00,15.84,45.1,12.68,11.21,11.18
2022-10-25 13:00,19.36,55.3,12.71,15.91,11.03
2022-10-25 14:00,7.33,71.8,12.71,6.97,2.29
2022-10-25 15:00,16.42,171.0,12.74,2.58,-16.22
2022-10-25 16:00,24.05,198.7,12.77,-7.72,-22.78
2022-10-25 17:00,34.90,211.4,12.74,-18.18,-29.80
2022-10-25 18:00,46.05,206.5,13.00,-20.52,-41.22
2022-10-25 19:00,43.12,207.9,12.77,-20.15,-38.11
2022-10-25 20:00,36.08,200.8,12.74,-12.83,-33.72
2022-10-25 21:00,23.17,218.8,12.71,-14.51,-18.07
2022-10-25 22:00,12.32,220.5,12.65,-8.00,-9.36
2022-10-25 23:00,4.40,122.1,12.65,3.73,-2.34
2022-10-26 00:00,8.51,346.0,12.74,-2.06,8.25
2022-10-26 01:00,9.39,20.1,12.74,3.23,8.81
2022-10-26 02:00,17.60,342.5,12.74,-5.28,16.79
2022-10-26 03:00,4.11,314.1,12.74,-2.95,2.86
2022-10-26 04:00,9.97,201.2,12.74,-3.60,-9.30
2022-10-26 05:00,24.05,191.7,12.77,-4.88,-23.55
2022-10-26 06:00,38.72,198.4,12.71,-12.21,-36.74
2022-10-26 07:00,45.75,207.2,12.71,-20.89,-40.71
2022-10-26 08:00,38.72,204.0,12.68,-15.75,-35.37
2022-10-26 09:00,26.98,203.6,12.65,-10.82,-24.72
2022-10-26 10:00,11.15,218.1,12.65,-6.87,-8.77
2022-10-26 11:00,6.45,185.7,12.65,-0.64,-6.42
2022-10-26 12:00,6.75,264.1,12.71,-6.71,-0.69
2022-10-26 13:00,13.20,292.6,12.68,-12.18,5.07
2022-10-26 14:00,17.60,311.9,12.68,-13.09,11.76
2022-10-26 15:00,18.77,323.9,12.65,-11.06,15.17
2022-10-26 16:00,19.65,200.1,12.59,-6.76,-18.45
2022-10-26 17:00,36.66,211.7,12.68,-19.29,-31.18
2022-10-26 18:00,46.63,206.1,12.74,-20.52,-41.88
2022-10-26 19:00,40.77,209.6,12.68,-20.15,-35.44
2022-10-26 20:00,48.98,207.2,12.71,-22.36,-43.58
2022-10-26 21:00,39.89,211.4,12.77,-20.77,-34.05
2022-10-26 22:00,21.70,265.9,12.81,-21.65,-1.56
2022-10-26 23:00,9.39,314.4,12.84,-6.71,6.57
2022-10-27 00:00,14.66,353.4,12.81,-1.69,14.57
2022-10-27 01:00,19.36,27.1,12.84,8.83,17.23
2022-10-27 02:00,14.08,67.2,12.81,12.98,5.45
2022-10-27 03:00,12.03,104.5,12.81,11.64,-3.01
2022-10-27 04:00,14.08,158.3,12.81,5.21,-13.08
2022-10-27 05:00,28.74,190.3,12.81,-5.13,-28.28
2022-10-27 06:00,34.61,177.6,12.81,1.43,-34.58
2022-10-27 07:00,52.79,192.4,12.81,-11.34,-51.56
2022-10-27 08:00,51.33,197.7,12.81,-15.58,-48.91
2022-10-27 09:00,48.39,203.3,12.81,-19.14,-44.45
2022-10-27 10:00,37.54,210.7,12.84,-19.16,-32.29
2022-10-27 11:00,20.82,194.9,12.84,-5.34,-20.13
2022-10-27 12:00,8.21,222.3,12.90,-5.53,-6.08
2022-10-27 13:00,13.79,280.7,12.90,-13.55,2.55
2022-10-27 14:00,10.56,309.8,12.93,-8.11,6.76
2022-10-27 15:00,9.09,313.7,13.03,-6.57,6.28
2022-10-27 16:00,8.21,265.5,13.06,-8.19,-0.64
2022-10-27 17:00,17.60,182.6,13.06,-0.78,-17.58
2022-10-27 18:00,35.20,194.2,13.18,-8.61,-34.13
2022-10-27 19:00,43.99,200.1,13.09,-15.14,-41.31
2022-10-27 20:00,56.61,183.3,12.90,-3.22,-56.52
2022-10-27 21:00,53.38,193.8,12.96,-12.74,-51.84
2022-10-27 22:00,48.10,193.5,13.12,-11.19,-46.78
2022-10-27 23:00,37.84,212.1,13.09,-20.10,-32.06
2022-10-28 00:00,21.12,220.5,13.09,-13.72,-16.05
2022-10-28 01:00,13.49,269.0,13.03,-13.49,-0.22
2022-10-28 02:00,7.92,268.3,12.90,-7.92,-0.23
2022-10-28 03:00,9.09,248.0,12.90,-8.43,-3.41
2022-10-28 04:00,21.12,240.2,12.93,-18.33,-10.49
2022-10-28 05:00,30.21,216.7,12.90,-18.04,-24.23
2022-10-28 06:00,47.51,221.6,12.87,-31.53,-35.54
2022-10-28 07:00,54.55,211.0,12.81,-28.12,-46.75
2022-10-28 08:00,47.81,216.7,12.81,-28.54,-38.35
2022-10-28 09:00,53.38,208.9,12.77,-25.82,-46.72
2022-10-28 10:00,50.15,216.0,12.68,-29.45,-40.60
2022-10-28 11:00,26.98,213.1,12.62,-14.75,-22.59
2022-10-28 12:00,21.41,214.9,12.52,-12.25,-17.56
2022-10-28 13:00,17.30,293.3,12.43,-15.89,6.85
2022-10-28 14:00,10.85,355.5,12.46,-0.85,10.82
2022-10-28 15:00,16.72,356.2,12.49,-1.11,16.68
2022-10-28 16:00,18.18,112.6,12.62,16.79,-6.98
2022-10-28 17:00,11.44,163.2,12.68,3.30,-10.95
2022-10-28 18:00,26.98,185.4,12.65,-2.52,-26.87
2022-10-28 19:00,37.84,185.0,12.55,-3.31,-37.69
2022-10-28 20:00,45.46,198.0,12.46,-14.07,-43.23
2022-10-28 21:00,46.34,204.4,12.46,-19.11,-42.22
2022-10-28 22:00,38.13,204.4,12.46,-15.72,-34.74
2022-10-28 23:00,28.45,201.2,12.46,-10.28,-26.53
2022-10-29 00:00,17.89,198.7,12.43,-5.74,-16.94
2022-10-29 01:00,5.28,217.4,12.43,-3.20,-4.20
2022-10-29 02:00,8.80,330.2,12.40,-4.37,7.64
2022-10-29 03:00,12.91,334.1,12.40,-5.64,11.61
2022-10-29 04:00,15.54,294.7,12.40,-14.12,6.50
2022-10-29 05:00,14.37,267.6,12.43,-14.36,-0.59
2022-10-29 06:00,17.30,248.7,12.40,-16.12,-6.30
2022-10-29 07:00,20.24,213.5,12.40,-11.17,-16.88
2022-10-29 08:00,38.42,213.1,12.40,-21.01,-32.17
2022-10-29 09:00,42.82,204.4,12.49,-17.66,-39.01
2022-10-29 10:00,36.96,212.1,12.49,-19.63,-31.31
2022-10-29 11:00,30.21,213.5,12.52,-16.67,-25.19
2022-10-29 12:00,17.60,226.2,12.49,-12.69,-12.19
2022-10-29 13:00,8.51,220.2,12.52,-5.49,-6.50
2022-10-29 14:00,15.54,328.1,12.55,-8.21,13.20
2022-10-29 15:00,13.49,347.1,12.55,-3.02,13.15
2022-10-29 16:00,12.32,22.6,12.62,4.73,11.37
2022-10-29 17:00,19.65,2.5,12.71,0.87,19.63
2022-10-29 18:00,5.87,254.3,12.71,-5.65,-1.59
2022-10-29 19:00,13.79,214.9,12.71,-7.89,-11.31
2022-10-29 20:00,24.05,206.8,12.68,-10.85,-21.46
2022-10-29 21:00,33.73,193.1,12.65,-7.65,-32.85
2022-10-29 22:00,31.09,224.7,12.55,-21.89,-22.08
2022-10-29 23:00,31.38,209.3,12.55,-15.35,-27.37
2022-10-30 00:00,25.81,173.4,12.55,2.96,-25.64
2022-10-30 01:00,6.75,203.6,12.49,-2.71,-6.18
2022-10-30 02:00,5.28,63.7,12.46,4.73,2.34
2022-10-30 03:00,23.76,69.7,12.46,22.28,8.25
2022-10-30 04:00,18.48,80.9,12.46,18.25,2.91
2022-10-30 05:00,4.99,108.7,12.46,4.72,-1.60
2022-10-30 06:00,4.40,175.2,12.46,0.37,-4.38
2022-10-30 07:00,12.91,196.3,12.43,-3.61,-12.39
2022-10-30 08:00,17.30,226.9,12.43,-12.63,-11.83
2022-10-30 09:00,20.82,216.3,12.43,-12.33,-16.78
2022-10-30 10:00,26.98,186.8,12.43,-3.18,-26.80
2022-10-30 11:00,30.50,191.3,12.43,-6.00,-29.91
2022-10-30 12:00,26.40,190.3,12.40,-4.71,-25.97
2022-10-30 13:00,22.88,186.8,12.43,-2.70,-22.72
2022-10-30 14:00,6.45,182.2,12.46,-0.25,-6.45
2022-10-30 15:00,0.88,322.8,12.52,-0.53,0.70
2022-10-30 16:00,17.01,352.0,12.52,-2.37,16.85
2022-10-30 17:00,14.08,331.3,12.74,-6.76,12.35
2022-10-30 18:00,9.09,301.4,12.74,-7.76,4.74
2022-10-30 19:00,9.97,253.6,12.74,-9.57,-2.82
2022-10-30 20:00,19.65,208.2,12.71,-9.29,-17.32
2022-10-30 21:00,32.56,202.6,12.71,-12.51,-30.06
2022-10-30 22:00,28.45,198.7,12.65,-9.13,-26.94
2022-10-30 23:00,20.53,221.9,12.55,-13.72,-15.27
2022-10-31 00:00,17.30,195.9,12.62,-4.75,-16.64
2022-10-31 01:00,14.96,190.6,12.59,-2.76,-14.70
2022-10-31 02:00,2.05,184.7,12.55,-0.17,-2.05
2022-10-31 03:00,21.70,54.2,12.59,17.61,12.69
2022-10-31 04:00,14.37,54.9,12.55,11.76,8.26
2022-10-31 05:00,11.15,62.7,12.52,9.90,5.12
2022-10-31 06:00,7.04,60.2,12.49,6.11,3.50
2022-10-31 07:00,7.33,163.9,12.46,2.03,-7.05
2022-10-31 08:00,17.89,181.9,12.49,-0.58,-17.88
2022-10-31 09:00,26.98,206.1,12.49,-11.88,-24.23
2022-10-31 10:00,34.32,217.0,12.49,-20.66,-27.40
2022-10-31 11:00,36.96,217.0,12.49,-22.25,-29.51
2022-10-31 12:00,28.74,225.1,12.46,-20.36,-20.29
2022-10-31 13:00,15.54,224.4,12.46,-10.88,-11.11
2022-10-31 14:00,8.51,151.3,12.49,4.09,-7.46
2022-10-31 15:00,4.99,87.6,12.52,4.98,0.21
2022-10-31 16:00,16.13,66.9,12.59,14.84,6.33
2022-10-31 17:00,21.41,37.0,12.59,12.88,17.10
2022-10-31 18:00,9.09,31.7,12.59,4.78,7.73
2022-10-31 19:00,14.08,44.4,12.62,9.85,10.06
2022-10-31 20:00,6.75,97.5,12.62,6.69,-0.88
2022-10-31 21:00,18.48,169.9,12.59,3.24,-18.19
2022-10-31 22:00,32.26,194.2,12.62,-7.89,-31.28
2022-10-31 23:00,29.33,204.7,12.55,-12.26,-26.65
2022-11-01 00:00,31.68,200.5,12.52,-11.09,-29.67
2022-11-01 01:00,25.22,203.3,12.52,-9.98,-23.17
2022-11-01 02:00,21.12,180.8,12.49,-0.29,-21.12
2022-11-01 03:00,7.04,142.8,12.52,4.25,-5.61
2022-11-01 04:00,8.21,68.3,12.52,7.63,3.04
2022-11-01 05:00,14.37,36.6,12.49,8.58,11.53
2022-11-01 06:00,14.96,355.5,12.52,-1.17,14.91
2022-11-01 07:00,12.91,7.8,12.55,1.75,12.79
2022-11-01 08:00,8.51,321.1,12.55,-5.34,6.62
2022-11-01 09:00,4.11,296.5,12.55,-3.68,1.83
2022-11-01 10:00,13.20,204.0,12.55,-5.37,-12.06
2022-11-01 11:00,26.98,204.7,12.49,-11.28,-24.51
2022-11-01 12:00,30.50,199.8,12.49,-10.32,-28.70
2022-11-01 13:00,29.62,206.8,12.52,-13.36,-26.44
2022-11-01 14:00,30.21,207.5,12.52,-13.96,-26.79
2022-11-01 15:00,16.42,191.7,12.55,-3.33,-16.08
2022-11-01 16:00,6.16,252.5,12.59,-5.87,-1.85
2022-11-01 17:00,9.09,327.4,12.65,-4.90,7.66
2022-11-01 18:00,13.20,353.4,12.62,-1.52,13.11
2022-11-01 19:00,13.20,343.2,12.65,-3.81,12.64
2022-11-01 20:00,5.87,318.6,12.68,-3.88,4.40
2022-11-01 21:00,3.23,26.8,12.74,1.45,2.88
2022-11-01 22:00,9.09,204.4,12.68,-3.75,-8.28
2022-11-01 23:00,24.93,204.7,12.68,-10.42,-22.65
2022-11-02 00:00,25.52,187.1,12.65,-3.16,-25.32
2022-11-02 01:00,30.21,210.3,12.59,-15.26,-26.08
2022-11-02 02:00,28.74,191.0,12.65,-5.48,-28.22
2022-11-02 03:00,25.52,184.7,12.71,-2.07,-25.43
2022-11-02 04:00,16.13,223.0,12.68,-11.00,-11.80
2022-11-02 05:00,11.44,277.1,12.68,-11.35,1.42
2022-11-02 06:00,14.37,347.4,12.65,-3.13,14.03
2022-11-02 07:00,10.56,316.5,12.62,-7.27,7.66
2022-11-02 08:00,10.56,11.3,12.62,2.07,10.35
2022-11-02 09:00,9.09,213.1,12.59,-4.97,-7.61
2022-11-02 10:00,12.91,221.2,12.59,-8.51,-9.71
2022-11-02 11:00,27.28,215.6,12.59,-15.88,-22.18
2022-11-02 12:00,35.78,213.8,12.59,-19.93,-29.72
2022-11-02 13:00,42.82,208.2,12.59,-20.25,-37.73
2022-11-02 14:00,41.06,211.0,12.59,-21.17,-35.18
2022-11-02 15:00,35.49,203.6,12.59,-14.24,-32.51
2022-11-02 16:00,16.13,209.3,12.62,-7.89,-14.07
2022-11-02 17:00,9.97,233.2,12.68,-7.98,-5.98
2022-11-02 18:00,4.69,318.6,12.74,-3.10,3.52
2022-11-02 19:00,6.16,291.2,12.84,-5.74,2.23
2022-11-02 20:00,20.24,343.6,12.81,-5.72,19.41
2022-11-02 21:00,14.08,53.2,12.62,11.27,8.44
2022-11-02 22:00,6.16,345.3,12.62,-1.56,5.96
2022-11-02 23:00,5.87,131.2,12.62,4.41,-3.87
2022-11-03 00:00,9.68,185.0,12.59,-0.85,-9.64
2022-11-03 01:00,27.57,201.9,12.59,-10.28,-25.58
2022-11-03 02:00,31.38,213.1,12.55,-17.16,-26.28
2022-11-03 03:00,32.26,194.5,12.59,-8.08,-31.23
2022-11-03 04:00,29.92,201.9,12.59,-11.15,-27.76
2022-11-03 05:00,17.01,227.6,12.55,-12.55,-11.48
2022-11-03 06:00,3.81,299.3,12.52,-3.33,1.87
2022-11-03 07:00,8.51,0.1,12.52,0.01,8.51
2022-11-03 08:00,27.86,2.2,12.49,1.06,27.84
2022-11-03 09:00,27.57,5.3,12.46,2.57,27.45
2022-11-03 10:00,14.08,15.5,12.49,3.77,13.56
2022-11-03 11:00,11.44,355.2,12.46,-0.97,11.40
2022-11-03 12:00,0.88,142.5,12.46,0.54,-0.70
2022-11-03 13:00,9.68,197.7,12.43,-2.94,-9.22
2022-11-03 14:00,18.48,194.9,12.49,-4.74,-17.86
2022-11-03 15:00,20.53,198.7,12.52,-6.59,-19.44
2022-11-03 16:00,7.33,197.3,12.55,-2.18,-7.00
2022-11-03 17:00,1.17,146.0,12.55,0.66,-0.97
2022-11-03 18:00,14.66,62.0,12.59,12.94,6.89
2022-11-03 19:00,24.93,41.9,12.55,16.65,18.55
2022-11-03 20:00,26.10,42.6,12.55,17.67,19.21
2022-11-03 21:00,40.48,48.6,12.52,30.36,26.77
2022-11-03 22:00,34.02,54.9,12.46,27.84,19.55
2022-11-03 23:00,19.06,50.7,12.46,14.75,12.07
2022-11-04 00:00,14.66,125.6,12.43,11.92,-8.54
2022-11-04 01:00,13.20,133.7,12.46,9.55,-9.12
2022-11-04 02:00,16.42,171.3,12.49,2.48,-16.24
2022-11-04 03:00,24.34,170.2,12.49,4.12,-23.99
2022-11-04 04:00,19.94,150.9,12.49,9.70,-17.43
2022-11-04 05:00,15.25,131.9,12.49,11.35,-10.19
2022-11-04 06:00,7.33,114.3,12.49,6.68,-3.02
2022-11-04 07:00,19.65,77.8,12.49,19.21,4.16
2022-11-04 08:00,18.77,50.4,12.46,14.45,11.98
2022-11-04 09:00,32.56,44.4,12.46,22.77,23.27
2022-11-04 10:00,29.04,39.5,12.43,18.45,22.42
2022-11-04 11:00,34.32,35.6,12.40,19.97,27.91
2022-11-04 12:00,16.72,44.0,12.43,11.62,12.02
2022-11-04 13:00,8.51,72.5,12.43,8.11,2.56
2022-11-04 14:00,8.80,116.1,12.46,7.90,-3.87
2022-11-04 15:00,20.82,161.8,12.46,6.50,-19.78
2022-11-04 16:00,19.65,168.5,12.49,3.92,-19.26
2022-11-04 17:00,18.77,160.4,12.52,6.30,-17.68
2022-11-04 18:00,16.42,128.8,12.52,12.81,-10.28
2022-11-04 19:00,9.97,94.0,12.52,9.95,-0.69
2022-11-04 20:00,21.41,74.3,12.55,20.61,5.81
2022-11-04 21:00,19.94,34.2,12.49,11.20,16.50
2022-11-04 22:00,23.76,29.3,12.52,11.61,20.73
2022-11-04 23:00,24.64,30.3,12.52,12.43,21.27
2022-11-05 00:00,21.12,16.6,12.49,6.03,20.24
2022-11-05 01:00,5.87,58.4,12.52,5.00,3.07
2022-11-05 02:00,14.96,107.7,12.49,14.25,-4.54
2022-11-05 03:00,16.13,161.8,12.49,5.04,-15.33
2022-11-05 04:00,19.94,170.2,12.49,3.38,-19.66
2022-11-05 05:00,24.34,153.0,12.49,11.04,-21.69
2022-11-05 06:00,21.12,141.8,12.46,13.07,-16.59
2022-11-05 07:00,11.73,92.5,12.49,11.72,-0.52
2022-11-05 08:00,32.85,81.3,12.49,32.47,4.97
2022-11-05 09:00,27.28,79.5,12.46,26.82,4.95
2022-11-05 10:00,32.85,41.6,12.46,21.79,24.58
2022-11-05 11:00,35.49,26.1,12.43,15.61,31.87
2022-11-05 12:00,14.08,30.7,12.46,7.18,12.11
2022-11-05 13:00,8.80,45.4,12.49,6.27,6.17
2022-11-05 14:00,2.93,294.0,12.49,-2.68,1.19
2022-11-05 15:00,7.04,170.2,12.49,1.19,-6.94
2022-11-05 16:00,15.54,191.3,12.52,-3.06,-15.24
2022-11-05 17:00,9.97,155.8,12.52,4.08,-9.10
2022-11-05 18:00,14.37,120.3,12.52,12.41,-7.26
2022-11-05 19:00,19.94,120.0,12.59,17.28,-9.96
2022-11-05 20:00,29.92,80.2,12.62,29.48,5.07
2022-11-05 21:00,22.29,84.8,12.62,22.20,2.02
2022-11-05 22:00,23.76,45.1,12.55,16.82,16.78
2022-11-05 23:00,31.09,39.1,12.59,19.61,24.13
2022-11-06 00:00,25.52,25.0,12.55,10.80,23.12
2022-11-06 01:00,17.01,38.4,12.55,10.57,13.33
2022-11-06 02:00,4.99,140.7,12.55,3.16,-3.86
2022-11-06 03:00,14.66,160.4,12.55,4.92,-13.82
2022-11-06 04:00,13.20,178.0,12.55,0.46,-13.19
2022-11-06 05:00,15.25,204.0,12.55,-6.20,-13.93
2022-11-06 06:00,19.06,177.6,12.55,0.79,-19.05
2022-11-06 07:00,11.73,125.2,12.52,9.58,-6.77
2022-11-06 08:00,15.54,73.6,12.52,14.91,4.40
2022-11-06 09:00,24.34,69.7,12.59,22.83,8.45
2022-11-06 10:00,32.26,46.8,12.59,23.53,22.07
2022-11-06 11:00,38.13,38.4,12.59,23.68,29.88
2022-11-06 12:00,31.68,43.3,12.59,21.73,23.05
2022-11-06 13:00,23.17,55.3,12.55,19.04,13.20
2022-11-06 14:00,7.92,79.2,12.59,7.78,1.49
2022-11-06 15:00,5.28,166.4,12.62,1.24,-5.13
2022-11-06 16:00,12.32,180.8,12.62,-0.17,-12.32
2022-11-06 17:00,22.58,183.6,12.68,-1.42,-22.54
2022-11-06 18:00,19.36,164.6,12.68,5.13,-18.66
2022-11-06 19:00,25.22,149.9,12.74,12.67,-21.81
2022-11-06 20:00,7.63,108.7,12.68,7.22,-2.45
2022-11-06 21:00,26.40,92.2,12.74,26.38,-1.01
2022-11-06 22:00,16.42,76.0,12.77,15.94,3.97
2022-11-06 23:00,32.26,34.5,12.71,18.29,26.58
2022-11-07 00:00,34.32,32.8,12.65,18.58,28.85
2022-11-07 01:00,26.98,30.7,12.68,13.76,23.21
2022-11-07 02:00,26.10,31.4,12.68,13.59,22.29
2022-11-07 03:00,3.23,107.3,12.68,3.08,-0.96
2022-11-07 04:00,5.57,112.6,12.68,5.15,-2.14
2022-11-07 05:00,9.39,169.5,12.68,1.70,-9.23
2022-11-07 06:00,26.69,157.9,12.68,10.02,-24.74
2022-11-07 07:00,27.28,159.7,12.68,9.46,-25.58
2022-11-07 08:00,22.00,118.2,12.68,19.38,-10.40
2022-11-07 09:00,30.80,99.2,12.71,30.40,-4.94
2022-11-07 10:00,26.98,87.3,12.68,26.95,1.29